When you browse on this site, cookies collect data to enhance your experience and personalize the content and advertising you see.
Visit our Privacy Policy to learn more. By continuing to use the site, you agree to this use of cookies and data.
  • In Deutschland
  • Länderverzeichnis
  • Für 7 Tage
  • Wassertemperatur
  • Satellitenkarten
  • Wetterkarte
  • Widgets
  • user-avatar
    Anmelden

    Stündliche Wetter Mingachevir

    Heute, 16 Dezember, Sonntag

    Zeit Temperatur Niederschläge Wind Luftdruck Luftfeuchtigkeit
    00:00 +8°C° 0 mm 1 m/S 760 mmHg 51%
    01:00 +8°C° 0 mm 1 m/S 760 mmHg 52%
    02:00 +7°C° 0 mm 1 m/S 759 mmHg 52%
    03:00 +6°C° 0 mm 2 m/S 759 mmHg 53%
    04:00 +6°C° 0 mm 2 m/S 759 mmHg 53%
    05:00 +6°C° 0 mm 2 m/S 759 mmHg 54%
    06:00 +6°C° 0 mm 2 m/S 759 mmHg 54%
    07:00 +7°C° 0 mm 2 m/S 759 mmHg 52%
    08:00 +9°C° 0 mm 1 m/S 759 mmHg 50%
    09:00 +10°C° 0 mm 1 m/S 759 mmHg 47%
    10:00 +11°C° 0 mm 1 m/S 759 mmHg 45%
    11:00 +12°C° 0 mm 1 m/S 758 mmHg 42%
    12:00 +13°C° 0 mm 2 m/S 758 mmHg 40%
    13:00 +13°C° 0 mm 2 m/S 758 mmHg 40%
    14:00 +13°C° 0 mm 2 m/S 758 mmHg 41%
    15:00 +13°C° 0 mm 2 m/S 758 mmHg 41%
    16:00 +12°C° 0 mm 2 m/S 759 mmHg 45%
    17:00 +10°C° 0 mm 2 m/S 759 mmHg 49%
    18:00 +9°C° 0 mm 2 m/S 760 mmHg 53%
    19:00 +9°C° 0 mm 3 m/S 760 mmHg 58%
    20:00 +8°C° 0 mm 3 m/S 760 mmHg 63%
    21:00 +8°C° 0 mm 3 m/S 760 mmHg 67%
    22:00 +7°C° 0 mm 3 m/S 760 mmHg 72%
    23:00 +7°C° 0 mm 3 m/S 760 mmHg 76%

    Morgen, 17 Dezember, Montag

    Zeit Temperatur Niederschläge Wind Luftdruck Luftfeuchtigkeit
    00:00 +5°C° 0 mm 3 m/S 760 mmHg 81%
    01:00 +6°C° 0 mm 2 m/S 760 mmHg 82%
    02:00 +6°C° 0 mm 2 m/S 761 mmHg 83%
    03:00 +6°C° 0 mm 2 m/S 761 mmHg 84%
    04:00 +6°C° 0 mm 2 m/S 760 mmHg 85%
    05:00 +7°C° 0 mm 1 m/S 760 mmHg 85%
    06:00 +6°C° 0 mm 1 m/S 760 mmHg 86%
    07:00 +7°C° 0 mm 1 m/S 760 mmHg 84%
    08:00 +6°C° 0 mm 2 m/S 760 mmHg 82%
    09:00 +6°C° 0 mm 2 m/S 760 mmHg 81%
    10:00 +7°C° 0 mm 2 m/S 760 mmHg 79%
    11:00 +7°C° 0 mm 2 m/S 759 mmHg 77%
    12:00 +8°C° 0 mm 2 m/S 759 mmHg 76%
    13:00 +8°C° 0 mm 2 m/S 758 mmHg 76%
    14:00 +8°C° 0 mm 2 m/S 758 mmHg 76%
    15:00 +8°C° 0 mm 2 m/S 758 mmHg 77%
    16:00 +7°C° 0 mm 2 m/S 758 mmHg 80%
    17:00 +7°C° 0 mm 2 m/S 759 mmHg 82%
    18:00 +6°C° 0 mm 2 m/S 759 mmHg 85%
    19:00 +6°C° 0.1 mm 2 m/S 759 mmHg 86%
    20:00 +6°C° 0.1 mm 2 m/S 759 mmHg 87%
    21:00 +6°C° 0.1 mm 2 m/S 758 mmHg 87%
    22:00 +6°C° 0.5 mm 2 m/S 758 mmHg 89%
    23:00 +6°C° 0.5 mm 2 m/S 758 mmHg 90%

    übermorgen, 18 Dezember, Dienstag

    Zeit Temperatur Niederschläge Wind Luftdruck Luftfeuchtigkeit
    00:00 +6°C° 0.5 mm 2 m/S 758 mmHg 91%
    01:00 +7°C° 0.4 mm 1 m/S 758 mmHg 91%
    02:00 +7°C° 0.4 mm 1 m/S 758 mmHg 91%
    03:00 +7°C° 0.4 mm 1 m/S 758 mmHg 91%
    04:00 +7°C° 0.6 mm 1 m/S 758 mmHg 91%
    05:00 +7°C° 0.6 mm 1 m/S 758 mmHg 91%
    06:00 +7°C° 0.6 mm 1 m/S 758 mmHg 91%
    07:00 +7°C° 0.6 mm 1 m/S 758 mmHg 91%
    08:00 +7°C° 0.6 mm 1 m/S 758 mmHg 91%
    09:00 +7°C° 0.6 mm 1 m/S 759 mmHg 90%
    10:00 +7°C° 0.4 mm 1 m/S 759 mmHg 89%
    11:00 +7°C° 0.4 mm 1 m/S 758 mmHg 88%
    12:00 +7°C° 0.4 mm 1 m/S 758 mmHg 88%
    13:00 +8°C° 0.1 mm 1 m/S 758 mmHg 87%
    14:00 +8°C° 0.1 mm 1 m/S 758 mmHg 86%
    15:00 +8°C° 0.1 mm 1 m/S 758 mmHg 85%
    16:00 +8°C° 0 mm 1 m/S 759 mmHg 87%
    17:00 +7°C° 0 mm 1 m/S 759 mmHg 88%
    18:00 +7°C° 0 mm 1 m/S 760 mmHg 90%
    19:00 +7°C° 0 mm 1 m/S 760 mmHg 90%
    20:00 +7°C° 0 mm 1 m/S 760 mmHg 90%
    21:00 +7°C° 0 mm 1 m/S 761 mmHg 90%
    22:00 +6°C° 0 mm 1 m/S 761 mmHg 91%
    23:00 +6°C° 0 mm 1 m/S 761 mmHg 91%

    19 Dezember, Mittwoch

    Zeit Temperatur Niederschläge Wind Luftdruck Luftfeuchtigkeit
    00:00 +6°C° 0 mm 1 m/S 761 mmHg 92%
    01:00 +6°C° 0 mm 1 m/S 761 mmHg 92%
    02:00 +5°C° 0 mm 0 m/S 761 mmHg 92%
    03:00 +5°C° 0 mm 0 m/S 761 mmHg 92%
    04:00 +4°C° 0 mm 0 m/S 761 mmHg 91%
    05:00 +4°C° 0 mm 0 m/S 761 mmHg 91%
    06:00 +4°C° 0 mm 0 m/S 761 mmHg 91%
    07:00 +5°C° 0 mm 0 m/S 761 mmHg 88%
    08:00 +5°C° 0 mm 0 m/S 761 mmHg 86%
    09:00 +7°C° 0 mm 1 m/S 761 mmHg 84%
    10:00 +8°C° 0 mm 1 m/S 760 mmHg 82%
    11:00 +8°C° 0 mm 1 m/S 760 mmHg 79%
    12:00 +9°C° 0 mm 1 m/S 760 mmHg 76%
    13:00 +9°C° 0 mm 1 m/S 759 mmHg 76%
    14:00 +9°C° 0 mm 1 m/S 759 mmHg 76%
    15:00 +9°C° 0 mm 1 m/S 759 mmHg 76%
    16:00 +8°C° 0 mm 1 m/S 759 mmHg 79%
    17:00 +8°C° 0 mm 1 m/S 759 mmHg 83%
    18:00 +7°C° 0 mm 1 m/S 759 mmHg 87%
    19:00 +7°C° 0 mm 1 m/S 759 mmHg 88%
    20:00 +6°C° 0 mm 1 m/S 759 mmHg 90%
    21:00 +6°C° 0 mm 1 m/S 759 mmHg 91%
    22:00 +6°C° 0 mm 1 m/S 759 mmHg 91%
    23:00 +6°C° 0 mm 1 m/S 759 mmHg 90%

    20 Dezember, Donnerstag

    Zeit Temperatur Niederschläge Wind Luftdruck Luftfeuchtigkeit
    00:00 +6°C° 0 mm 1 m/S 759 mmHg 90%
    01:00 +6°C° 0 mm 1 m/S 758 mmHg 89%
    02:00 +6°C° 0 mm 1 m/S 758 mmHg 89%
    03:00 +6°C° 0 mm 1 m/S 758 mmHg 89%
    04:00 +6°C° 0 mm 1 m/S 757 mmHg 89%
    05:00 +6°C° 0 mm 1 m/S 757 mmHg 88%
    06:00 +6°C° 0 mm 1 m/S 757 mmHg 88%
    07:00 +6°C° 0 mm 1 m/S 757 mmHg 86%
    08:00 +7°C° 0 mm 1 m/S 757 mmHg 83%
    09:00 +7°C° 0 mm 1 m/S 757 mmHg 81%
    10:00 +7°C° 0 mm 2 m/S 756 mmHg 76%
    11:00 +8°C° 0 mm 2 m/S 756 mmHg 71%
    12:00 +9°C° 0 mm 2 m/S 755 mmHg 66%
    13:00 +9°C° 0 mm 2 m/S 755 mmHg 65%
    14:00 +10°C° 0 mm 2 m/S 755 mmHg 63%
    15:00 +10°C° 0 mm 2 m/S 754 mmHg 61%
    16:00 +10°C° 0 mm 1 m/S 755 mmHg 64%
    17:00 +9°C° 0 mm 1 m/S 755 mmHg 67%
    18:00 +8°C° 0 mm 0 m/S 756 mmHg 70%
    19:00 +7°C° 0 mm 0 m/S 756 mmHg 71%
    20:00 +7°C° 0 mm 0 m/S 756 mmHg 72%
    21:00 +7°C° 0 mm 0 m/S 756 mmHg 72%
    22:00 +7°C° 0 mm 0 m/S 756 mmHg 73%
    23:00 +6°C° 0 mm 0 m/S 757 mmHg 73%

    21 Dezember, Freitag

    Zeit Temperatur Niederschläge Wind Luftdruck Luftfeuchtigkeit
    00:00 +6°C° 0 mm 0 m/S 757 mmHg 73%
    01:00 +6°C° 0 mm 0 m/S 757 mmHg 73%
    02:00 +7°C° 0 mm 1 m/S 757 mmHg 73%
    03:00 +7°C° 0 mm 1 m/S 757 mmHg 73%
    04:00 +7°C° 0 mm 1 m/S 757 mmHg 73%
    05:00 +7°C° 0 mm 1 m/S 757 mmHg 74%
    06:00 +7°C° 0 mm 1 m/S 757 mmHg 74%
    07:00 +7°C° 0.1 mm 1 m/S 757 mmHg 73%
    08:00 +8°C° 0.1 mm 1 m/S 758 mmHg 73%
    09:00 +8°C° 0.1 mm 1 m/S 758 mmHg 72%
    10:00 +9°C° 0.4 mm 1 m/S 757 mmHg 74%
    11:00 +9°C° 0.4 mm 1 m/S 757 mmHg 75%
    12:00 +9°C° 0.4 mm 1 m/S 757 mmHg 76%
    13:00 +9°C° 0.5 mm 1 m/S 757 mmHg 78%
    14:00 +9°C° 0.5 mm 1 m/S 757 mmHg 81%
    15:00 +8°C° 0.5 mm 1 m/S 757 mmHg 83%
    16:00 +8°C° 0.3 mm 1 m/S 757 mmHg 84%
    17:00 +8°C° 0.3 mm 1 m/S 757 mmHg 86%
    18:00 +8°C° 0.3 mm 1 m/S 758 mmHg 88%
    19:00 +7°C° 0.3 mm 0 m/S 758 mmHg 88%
    20:00 +6°C° 0.3 mm 0 m/S 758 mmHg 89%
    21:00 +6°C° 0.3 mm 0 m/S 758 mmHg 89%
    22:00 +6°C° 0.2 mm 0 m/S 758 mmHg 89%
    23:00 +6°C° 0.2 mm 0 m/S 758 mmHg 89%
    Mehr zeigen